Location: Hohenfelde
(53.8441°N, 9.6220°E)
Time: 01:30:25
(UTC+00:00)

Daily predictions for brighter satellites

Satellite Brightness Start Highest point End
(mag) Time Altitude Azimuth Time Altitude Azimuth Time Altitude Azimuth
CZ-4 R/B 3.8 00:01:40 10° NNE 00:06:26 84° ESE 00:09:36 22° SSW
Cosmos 2242 Rocket 3.8 00:03:26 10° N 00:08:02 71° ENE 00:11:25 18° SSE
Landsat 4 4.0 00:04:39 10° N 00:08:26 63° WNW 00:10:43 22° SW
Cosmos 1441 Rocket 3.6 00:10:43 22° SSW 00:13:07 58° WNW 00:17:01 10° N
Lacrosse 5 2.0 00:10:39 18° SW 00:14:23 57° SE 00:19:23 10° ENE
IRAS Rocket 4.4 00:11:57 11° SSE 00:17:10 73° ENE 00:22:41 10° NNW
SL-16 R/B 3.0 00:12:40 10° SE 00:18:49 62° ENE 00:25:01 10° NNW
Meteor 1-4 Rocket 2.8 00:15:50 10° NNW 00:19:30 57° W 00:21:27 25° S
Cosmos 1602 4.3 00:17:36 20° SSE 00:19:57 48° E 00:23:41 10° NNE
BREEZE-M DEB (TANK) 4.2 00:13:16 10° WSW 00:20:34 33° S 00:23:51 10° ESE
Okean 1 3.3 00:17:20 10° N 00:21:21 82° E 00:24:06 19° SSE
Cosmos 1933 Rocket 3.7 00:23:25 21° S 00:26:16 69° E 00:30:36 10° NNE
Cosmos 1607 4.2 00:20:05 10° SW 00:26:19 74° NW 00:32:43 10° NE
Cosmos 1943 4.4 00:21:04 10° WSW 00:26:22 39° NW 00:31:41 10° NNE
Cosmos 1666 Rocket 4.2 00:23:50 18° SW 00:26:46 45° WNW 00:30:59 10° N
Iridium 4 Rocket 3.7 00:24:13 19° S 00:28:17 76° W 00:33:34 10° N
MOZ.5/SAFIR/RUBIN 5/SL-8 3.9 00:25:51 14° SSE 00:30:00 78° ENE 00:34:49 10° NNW
Helios 1B rocket 2.5 00:26:13 10° N 00:30:20 70° WNW 00:33:01 21° SSW
Cosmos 1697 Rocket 3.2 00:25:16 10° NNW 00:30:52 60° NE 00:36:26 10° SE
NOSS 2-1 (C) 4.5 00:26:36 10° NW 00:31:22 49° SW 00:37:55 10° SSE
Cosmos 1437 Rocket 3.5 00:30:13 10° N 00:34:13 53° ENE 00:38:00 11° SSE
Cosmos 1703 Rocket 3.6 00:30:10 10° NNW 00:34:40 90° WSW 00:38:05 17° S
USA 267 4.4 00:32:12 17° SSW 00:34:47 22° SW 00:39:39 10° WNW
SeaSat 1 4.0 00:37:12 10° NE 00:41:14 24° ESE 00:45:02 11° SSE
NOSS 7 (D) 3.9 00:39:28 10° NW 00:42:13 81° NE 00:45:09 10° SE
CZ-2D R/B 2.9 00:39:21 10° NNE 00:44:30 46° E 00:49:08 13° S
Cosmos 2082 Rocket 4.2 00:41:58 10° SE 00:45:50 19° E 00:49:42 10° ENE
SL-4 R/B 3.7 00:44:57 10° WNW 00:46:46 16° NW 00:48:33 10° N
Cosmos 614 Rocket 4.4 00:43:22 17° S 00:47:08 52° ESE 00:52:07 10° NNE
Cosmos 1833 Rocket 4.0 00:44:54 11° SSE 00:49:24 30° ESE 00:54:14 10° NE
Cosmos 2100 Rocket 4.1 00:45:06 16° S 00:50:18 80° E 00:56:33 10° NNE
DELTA 2 DEB (DPAF) 4.1 00:46:50 16° S 00:50:23 71° WSW 00:54:51 10° NNW
Cosmos 1656 3.6 00:45:19 10° NW 00:50:44 69° WSW 00:56:08 10° SSE
Cosmos 1184 Rocket 2.8 00:49:58 23° SSW 00:51:52 74° WNW 00:55:10 10° N
Meteor 1-25 Rocket 4.3 00:47:42 17° SSW 00:52:01 73° WNW 00:57:37 10° N
Cosmos 1238 Rocket 3.8 00:50:05 17° SW 00:53:55 47° WNW 00:58:09 10° N
COSMOS 2406 3.9 00:49:39 15° S 00:54:09 45° ESE 00:59:38 10° NE
Cosmos 405 Rocket 2.7 00:52:44 19° S 00:55:23 75° E 00:59:08 10° NNE
Cosmos 1140 Rocket 4.5 00:52:12 13° S 00:56:28 39° ESE 01:01:19 10° NE
Cosmos 1459 Rocket 4.0 00:52:49 15° S 00:57:56 83° E 01:04:10 10° NNE
Meteor 1-29 3.5 00:54:54 10° N 00:58:12 47° WNW 01:00:26 18° SW
Cosmos 220 Rocket 4.0 00:54:53 10° NNW 00:59:07 63° WSW 01:02:54 12° SSE
Cosmos 407 Rocket 4.1 00:55:13 15° S 00:59:30 52° ESE 01:04:42 10° NNE
Cosmos 1500 3.7 00:58:26 15° S 01:01:27 52° E 01:05:09 10° NNE
Meteor 1-20 Rocket 4.5 00:58:23 16° SSW 01:02:50 61° WNW 01:08:31 10° N
Cosmos 724 4.3 00:59:22 13° SW 01:04:31 84° NW 01:10:26 10° NE
Cosmos 1802 Rocket 4.1 01:03:01 13° S 01:08:44 82° E 01:15:13 10° NNE
Meteor 1-13 Rocket 4.4 01:05:51 10° NNW 01:11:41 78° ENE 01:17:20 10° SSE
Cosmos 1515 4.3 01:09:31 10° NNW 01:13:08 42° W 01:15:49 16° SSW
CZ-4C R/B 3.4 01:11:31 15° S 01:14:33 55° WSW 01:18:08 10° NNW
ARIANE 5 R/B 4.5 01:12:21 10° NE 01:16:20 23° E 01:20:20 10° SE
Okean 1-7 3.7 01:12:17 10° NNW 01:16:27 42° W 01:19:46 15° SSW
Cosmos 1666 3.9 01:13:27 10° SSE 01:16:55 36° E 01:20:23 10° NNE
Cosmos 1818 4.1 01:16:16 10° NW 01:21:44 66° NE 01:27:10 10° ESE
ADEOS II 3.1 01:17:45 10° NNE 01:22:44 41° E 01:27:41 10° SSE
NPP 3.8 01:18:20 10° NNE 01:23:45 77° ESE 01:28:51 12° S
Cosmos 1725 Rocket 4.1 01:21:06 10° S 01:27:12 79° E 01:33:30 10° NNE
Resurs 1-4 Rocket 2.1 01:22:04 10° NNE 01:27:27 88° WNW 01:32:21 12° SSW
SL-08 R/B 4.1 01:25:56 10° SE 01:30:37 56° ENE 01:35:23 10° N
ISS -3.5 01:28:08 10° W 01:31:22 44° SSW 01:34:36 10° ESE
AQUA 4.0 01:26:57 10° NNE 01:31:45 75° ESE 01:36:23 11° S
Cosmos 1733 Rocket 3.8 01:30:08 10° SSE 01:34:16 48° E 01:38:27 10° NNE
UNK 4.4 01:33:05 12° SSW 01:37:01 39° W 01:41:24 10° NNW
Abrixas rocket 3.2 01:35:13 12° WSW 01:37:16 21° SSW 01:39:33 10° SE
Tsikada Rocket 4.1 01:31:00 10° NNW 01:37:25 76° W 01:43:49 10° S
ATLAS 5 CENTAUR R/B 2.2 01:35:28 10° NW 01:40:54 79° SW 01:47:18 10° SE
USA 215 3.7 01:35:40 10° E 01:42:11 69° N 01:48:42 10° W
Gbstr 26 Del rocket 3.5 01:39:55 10° W 01:43:43 37° SSW 01:48:10 10° SE
Cosmos 1242 Rocket 3.8 01:42:03 10° N 01:45:22 41° ENE 01:48:41 10° SE
Cosmos 2369 3.9 01:40:17 10° NW 01:45:50 53° WSW 01:51:23 10° S
Cosmos 1980 Rocket 2.2 01:41:01 10° NW 01:46:45 79° WSW 01:52:26 10° SSE
Cosmos 2061 Rocket 4.2 01:41:58 11° SSW 01:48:08 67° WNW 01:54:26 10° N
SL-8 R/B 4.3 01:46:43 10° SW 01:51:11 38° SSE 01:55:38 10° E
Okean 3 4.1 01:50:44 10° NNW 01:54:39 39° W 01:58:34 10° SSW
Cosmos 1378 3.8 01:51:04 10° N 01:54:47 56° ENE 01:58:29 10° SSE
Lacrosse 5 2.2 01:52:17 10° W 01:57:23 68° NNW 02:02:28 10° ENE
IDEFIX/ARIANE 42P 4.2 01:53:39 10° NNE 01:58:16 31° E 02:02:50 10° SSE
Cosmos 2016 Rocket 4.3 01:53:45 10° SSW 01:59:48 57° WNW 02:05:58 10° N
Meteor 1-5 Rocket 4.5 01:55:57 10° SSW 02:01:37 66° WNW 02:07:31 10° N
SL-16 R/B 3.4 01:57:19 10° SSW 02:02:50 32° W 02:08:24 10° NNW
Cosmos 2278 3.9 02:00:44 10° NW 02:06:18 54° WSW 02:11:50 10° S
Cosmos 1536 2.9 02:03:18 10° SSW 02:07:23 78° WNW 02:11:27 10° N
Cosmos 1356 3.8 02:05:35 10° S 02:08:59 62° E 02:12:24 10° NNE
SL-16 R/B 2.9 02:03:30 10° NNW 02:09:09 60° NE 02:14:46 10° SE
Cosmos 1437 Rocket 4.5 02:07:14 10° NW 02:10:06 19° W 02:12:55 10° SW
Meteor 1-11 Rocket 3.7 02:04:46 10° SSW 02:10:17 76° WNW 02:15:52 10° NNE
Cosmos 921 Rocket 3.5 02:06:54 10° NW 02:11:04 41° WSW 02:15:08 10° S
H-2A R/B 2.9 02:07:30 10° SE 02:11:46 55° ENE 02:15:58 10° N
Cosmos 1190 Rocket 4.3 02:06:54 10° SW 02:12:04 60° WNW 02:17:19 10° NNE
Cosmos 1954 Rocket 4.1 02:08:45 10° SSW 02:14:02 87° WNW 02:19:25 10° NNE
Cosmos 1697 Rocket 3.5 02:09:39 10° NW 02:14:34 32° WSW 02:19:27 10° SSW
Cosmos 1263 4.2 02:14:08 10° N 02:17:10 83° E 02:20:12 10° SSE
SeaSat 1 2.6 02:14:14 10° NNE 02:19:11 72° NW 02:24:06 10° SW
Cosmos 1378 Rocket 3.6 02:16:41 10° NNW 02:21:05 67° W 02:25:28 10° S
